Regional Weather Roundup
Issued by NWS Portland, ME

Home | Current Version | Previous Version | Text Only | Print | Product List | Glossary On
Versions: 1 2 3 4 5 6 7 8 9 10 11 12 13 14 15 16 17 18 19 20 21 22 23 24 25 26 27 28 29 30 31 32 33 34 35 36 37 38 39 40 41 42 43 44 45 46 47 48 49 50
000
ASUS41 KGYX 021710
RWRGYX
WEATHER ROUNDUP FOR MAINE AND NEW HAMPSHIRE
NATIONAL WEATHER SERVICE GRAY ME
100 PM EDT THU OCT 02 2014

MEZ002-005-006-010-012-015-018-020-021-024-026-027-029-021800-
MAINE

CITY           SKY/WX    TMP DP  RH WIND       PRES   REMARKS
PORTLAND       CLOUDY    54  46  74 N9        30.20S
SANFORD        CLOUDY    55  45  67 N10       30.19S
BAR HARBOR     SUNNY     61  46  59 NE13G20   30.16F
WISCASSET      MOSUNNY   61  46  57 VRB7      30.19F
ROCKLAND       SUNNY     59  46  63 NE10G20   30.16F
FRYEBURG       CLOUDY    60  49  66 CALM      30.18F
LEWISTONAUBURN MOSUNNY   55  45  67 NE9       30.19F
AUGUSTA        SUNNY     60  43  53 NE10      30.19F
WATERVILLE       N/A    N/A N/A N/A CALM      30.14F
BANGOR         MOSUNNY   63  44  50 NE15      30.19F
GREENVILLE       N/A     59  40  49 N6        30.19F
MILLINOCKET    SUNNY     58  42  55 NW8       30.23F
HOULTON        SUNNY     60  41  49 NE13      30.22F
PRESQUE ISLE   SUNNY     54  41  62 N7        30.25F
FRENCHVILLE    SUNNY     53  37  54 NE3       30.26F
CARIBOU        SUNNY     56  40  55 E7        30.25F
$$

NHZ002-005-008-009-011-012-014-021800-
NEW HAMPSHIRE

CITY           SKY/WX    TMP DP  RH WIND       PRES   REMARKS
PORTSMOUTH     CLOUDY    56  50  80 N8        30.17F
ROCHESTER      CLOUDY    56  50  80 N8        30.17F
NASHUA         CLOUDY    58  53  83 CALM      30.18F
MANCHESTER     CLOUDY    59  49  69 N8        30.15F
CONCORD        CLOUDY    61  51  70 VRB5      30.16F
LACONIA        MOSUNNY   61  48  63 NE5       30.15F
PLYMOUTH       CLOUDY    65  57  75 CALM      30.14F
BERLIN         SUNNY     63  50  62 CALM      30.18F
WHITEFIELD     MOSUNNY   66  50  56 E6        30.17F
JAFFREY        CLOUDY    57  52  83 VRB6      30.16F
LEBANON        PTSUNNY   63  53  70 CALM      30.16F
MT WASHINGTON  NOT AVBL
$$

VTZ005-007-008-021800-
VERMONT

CITY           SKY/WX    TMP DP  RH WIND       PRES   REMARKS
ST JOHNSBURY     N/A     66  51  58 MISG      30.14F
MONTPELIER     MOSUNNY   66  53  63 E6        30.19F
BURLINGTON     MOSUNNY   66  54  65 NW6       30.15F
$$

MAZ007-012-024-CTZ003-RIZ002-NYZ038-NYZ072-021800-
SOUTHERN NEW ENGLAND AND NY

CITY           SKY/WX    TMP DP  RH WIND       PRES   REMARKS
BOSTON         CLOUDY    55  52  89 N15       30.17R
WORCESTER      CLOUDY    54  52  93 NE8       30.16F
NANTUCKET      LGT RAIN  59  55  87 NE22G29   30.06R
PROVIDENCE     CLOUDY    58  54  86 NE13      30.15R
HARTFORD       CLOUDY    62  55  77 N10       30.13F
ALBANY         PTSUNNY   66  54  65 CALM      30.15F
NEW YORK CITY  PTSUNNY   66  55  67 NE10      30.12F
$$

ANZ081-ANZ082-ANZ150-NHZ014-MEZ023>029-021800-
COASTAL MARINE OBSERVATIONS

STATION/POSITION TIME  TEMP    WIND        PRES    WAVE
                       AIR SEA DIR/SP/G            HT/PER
                 (UTC) (F)     (DEG/KT/KT) (MB)    (FT/S)
MATINICUS ROCK   1700           60/ 13/ 15 1020.6F
PORTLAND WX BUOY 1650   53 56   20/ 10/ 14 1022.3R   6/ 8
WELLS            1600   54 56   40/  8/  9 1021.5F
ISLE OF SHOALS   1700   54      40/ 15/ 17 1021.2F
JEFFREYS LEDGE   1621      57                N/A     8/ 8
CASHES LEDGE BUO 1650   54 57              1019.9F   8/ 9
$$

.............KEY..............
   WCI - WIND CHILL
   TC  - TEMPERATURE IN CELSIUS
   VSB - VISIBILITY IN MILES
   HX  - HEAT INDEX
   FAIR- INDICATES FEW OR NO CLOUDS BELOW 12,000 FT, WITH NO
         SIGNIFICANT WEATHER AND/OR OBSTRUCTIONS TO VISIBILITY.





USA.gov is the U.S. government's official web portal to all federal, state and local government web resources and services.